1505559600.84,44306,14.19,73546.5,7.11,2.85,2.81,0,*7B
1505559602.06,44307,14.19,73558.5,7.13,3.79,3.67,0,*73
1505559603.29,44308,14.19,73566.5,7.11,3.45,3.25,0,*77
1505559604.51,44309,14.19,73578.0,7.11,3.19,2.91,0,*71
1505559605.74,44310,14.19,73568.5,7.13,2.47,2.05,0,*7C
1505559606.98,44311,14.19,73580.0,7.13,3.75,3.41,0,*7C
1505559608.2,44312,14.19,73574.0,7.11,2.81,2.31,0,*71
1505559609.44,44313,14.19,73574.8,7.11,1.47,0.67,0,*48
1505559610.66,44314,14.19,73590.0,7.11,3.19,2.95,0,*79
1505559611.87,44315,14.19,73596.5,7.07,4.53,4.41,0,*79
1505559613.05,44316,14.19,73602.8,7.09,5.37,5.23,0,*72
1505559614.25,44317,14.19,73604.3,7.13,5.77,5.71,0,*7B
1505559615.42,44318,14.13,73602.5,7.13,5.07,4.85,0,*79
1505559616.62,44319,14.19,73610.8,7.17,3.63,3.11,0,*72
1505559617.83,44320,14.19,73616.3,7.17,4.05,3.59,0,*73
1505559619.05,44321,14.19,73624.5,7.19,5.33,5.27,0,*77
1505559620.28,44322,14.19,73638.8,7.21,5.73,5.73,0,*7A
1505559621.48,44323,14.19,73626.0,7.25,3.93,3.53,0,*73
1505559622.74,44324,14.19,73586.5,7.27,3.67,2.69,0,*75
1505559623.94,44325,14.19,73602.5,7.27,3.29,2.95,0,*7D
1505559625.18,44326,14.19,73576.5,7.31,0.47,1.43,0,*4A
1505559626.41,44327,14.19,73580.3,7.35,-1.33,1.29,0,*5C
1505559627.63,44328,14.19,73584.5,7.37,-2.67,-0.15,0,*40
1505559628.82,44329,14.19,73594.5,7.37,-3.07,-1.51,0,*77
1505559630.01,44330,14.19,73582.3,7.33,-4.57,-2.27,0,*7B
1505559631.26,44331,14.19,73580.8,7.33,-5.19,-2.47,0,*77
1505559632.45,44332,14.19,73594.5,7.29,-3.91,-1.25,0,*7E
1505559633.64,44333,14.19,73578.8,7.29,-3.15,0.43,0,*6F
1505559634.86,44334,14.19,73576.8,7.27,-3.31,-0.19,0,*42
1505559636.06,44335,14.19,73584.5,7.25,-0.57,1.97,0,*68
1505559637.27,44336,14.13,73582.0,7.27,0.05,2.85,0,*73
1505559638.53,44337,14.19,73596.8,7.27,-1.87,1.55,0,*5A
1505559639.75,44338,14.19,73598.3,7.27,0.33,2.95,0,*49
1505559640.99,44339,14.19,73590.0,7.29,1.37,3.37,0,*7A
1505559642.24,44340,14.19,73592.0,7.31,1.47,2.77,0,*7F
1505559643.46,44341,14.19,73594.5,7.31,1.71,2.99,0,*7B
1505559644.69,44342,14.19,73586.0,7.33,-0.97,0.47,0,*5F
1505559645.9,44343,14.19,73592.8,7.33,-0.45,1.09,0,*6A
1505559647.1,44344,14.19,73600.3,7.33,-0.07,0.47,0,*60
1505559648.32,44345,14.19,73614.5,7.35,-0.45,0.41,0,*57
1505559649.54,44346,14.19,73604.5,7.35,-0.19,0.67,0,*59
1505559650.75,44347,14.19,73612.3,7.35,-2.19,-1.17,0,*71
1505559652.0,44348,14.19,73610.3,7.37,-1.99,-1.39,0,*7B
1505559653.21,44349,14.19,73602.8,7.39,-3.03,-3.15,0,*79
1505559654.44,44350,14.19,73608.8,7.41,-3.71,-3.63,0,*7A
1505559655.65,44351,14.19,73620.3,7.39,-3.03,-3.15,0,*70
1505559656.89,44352,14.19,73624.5,7.39,-2.35,-2.47,0,*71
1505559658.16,44353,14.19,73626.5,7.43,-2.07,-2.47,0,*7C
1505559659.39,44354,14.19,73626.5,7.43,-1.83,-1.59,0,*78
1505559660.6,44355,14.19,73624.5,7.47,-2.39,-2.91,0,*78
1505559661.8,44356,14.19,73626.3,7.49,-2.83,-3.15,0,*79
1505559663.01,44357,14.19,73628.0,7.51,-2.51,-3.15,0,*7E
1505559664.29,44358,14.19,73628.8,7.53,-1.47,-1.99,0,*71
1505559665.55,44359,14.19,73640.8,7.57,-1.09,-1.43,0,*79
1505559666.76,44360,14.19,73642.3,7.59,0.71,-0.15,0,*5C
1505559667.97,44361,14.19,73632.0,7.65,0.13,-0.57,0,*50
1505559669.15,44362,14.19,73636.8,7.71,-0.53,-0.69,0,*72
1505559670.39,44363,14.19,73638.5,7.73,-1.01,-2.19,0,*72
1505559671.6,44364,14.19,73638.8,7.77,-1.59,-3.11,0,*75
1505559672.81,44365,14.19,73640.3,7.79,-2.11,-2.43,0,*73
1505559674.02,44366,14.19,73642.5,7.83,-1.51,-2.43,0,*72
1505559675.2,44367,14.19,73644.0,7.85,-1.59,-2.87,0,*75
1505559676.39,44368,14.19,73644.0,7.89,-1.59,-2.35,0,*7F
1505559677.58,44369,14.19,73650.3,7.93,-0.81,-1.63,0,*41
1505559678.83,44370,14.19,73640.5,7.95,-1.01,-1.29,0,*78
1505559680.04,44371,14.19,73644.5,7.99,-1.59,-2.99,0,*70
1505559681.24,44372,14.19,73644.5,8.01,-2.99,-3.47,0,*70
1505559682.48,44373,14.19,73644.5,8.03,-3.71,-3.39,0,*7D
1505559683.7,44374,14.19,73652.5,8.05,-5.23,-4.61,0,*77
1505559684.92,44375,14.19,73648.5,8.05,-6.77,-5.27,0,*77
1505559686.16,44376,14.19,73650.5,8.05,-6.93,-5.89,0,*7A
1505559687.38,44377,14.19,73644.0,8.05,-9.41,-6.55,0,*79
1505559688.57,44378,14.19,73634.0,8.05,-8.97,-5.47,0,*7C
1505559689.8,44379,14.19,73624.8,8.03,-9.61,-6.05,0,*76
1505559691.03,44380,14.19,73634.0,8.01,-12.29,-7.27,0,*45
1505559692.27,44381,14.19,73648.0,7.99,-7.87,-2.47,0,*79
1505559693.51,44382,14.19,73644.8,7.95,-11.11,-4.93,0,*41
1505559694.73,44383,14.19,73624.3,7.89,-11.77,-4.99,0,*47
1505559695.98,44384,14.19,73610.0,7.85,-8.81,-2.63,0,*7E
1505559697.2,44385,14.19,73612.5,7.81,-5.31,-0.41,0,*4F
1505559698.44,44386,14.19,73614.8,7.81,-2.67,1.17,0,*57
1505559699.65,44387,14.19,73612.5,7.79,0.29,2.85,0,*4C
1505559700.84,44388,14.19,73628.3,7.77,0.09,2.27,0,*77
1505559702.08,44389,14.19,73640.5,7.77,0.37,2.55,0,*4E
1505559703.29,44390,14.19,73650.8,7.77,2.31,4.07,0,*73
1505559704.55,44391,14.19,73656.3,7.77,1.97,3.49,0,*70
1505559705.76,44392,14.19,73672.8,7.75,0.63,1.55,0,*44
1505559706.99,44393,14.19,73682.0,7.73,0.17,0.37,0,*75
1505559708.18,44394,14.19,73652.5,7.67,-1.17,-0.81,0,*4B
1505559709.41,44395,14.19,73646.8,7.61,-0.03,0.37,0,*68
1505559710.62,44396,14.19,73640.0,7.59,0.47,0.47,0,*7A
1505559711.85,44397,14.19,73636.0,7.55,0.63,0.59,0,*7E
1505559713.08,44398,14.19,73648.3,7.51,2.17,2.05,0,*7F
1505559714.3,44399,14.19,73658.8,7.51,2.05,1.89,0,*7A
1505559715.55,44400,14.19,73656.8,7.49,2.01,1.97,0,*7F
1505559716.8,44401,14.19,73648.8,7.47,0.91,0.55,0,*74
1505559718.03,44402,14.19,73644.0,7.41,1.09,1.13,0,*72
1505559719.25,44403,14.19,73646.8,7.43,1.13,0.97,0,*47
1505559720.48,44404,14.19,73642.8,7.37,0.51,0.21,0,*79
1505559721.68,44405,14.19,73642.0,7.35,0.09,-0.15,0,*6D
1505559722.91,44406,14.19,73628.0,7.31,0.33,0.21,0,*79
1505559724.12,44407,14.19,73622.5,7.25,1.17,1.01,0,*79
1505559725.33,44408,14.19,73622.8,7.25,1.29,1.05,0,*7F
1505559726.56,44409,14.19,73608.0,7.25,1.85,1.85,0,*70
1505559727.77,44410,14.19,73602.3,7.25,2.73,2.61,0,*7B
1505559728.97,44411,14.19,73598.5,7.25,2.95,2.73,0,*71
1505559730.2,44412,14.19,73600.0,7.21,2.59,2.21,0,*71
1505559731.45,44413,14.19,73608.8,7.19,1.71,1.55,0,*72
1505559732.71,44414,14.19,73618.3,7.19,3.15,3.03,0,*74
1505559733.91,44415,14.19,73626.0,7.21,4.01,3.85,0,*72
1505559735.14,44416,14.19,73626.0,7.25,2.81,2.89,0,*76
1505559736.32,44417,14.19,73626.0,7.25,1.75,1.75,0,*7F
1505559737.52,44418,14.19,73624.8,7.21,2.25,2.31,0,*71
1505559738.75,44419,14.19,73640.5,7.21,2.25,2.09,0,*7B
1505559739.98,44420,14.19,73614.5,7.21,2.43,2.43,0,*7F
1505559741.18,44421,14.19,73614.3,7.25,3.53,3.59,0,*70
1505559742.36,44422,14.19,73626.8,7.25,4.15,4.41,0,*78
1505559743.6,44423,14.19,73620.3,7.27,4.75,5.19,0,*71
1505559744.82,44424,14.19,73616.8,7.31,3.33,3.59,0,*76
1505559746.05,44425,14.19,73634.0,7.31,3.75,4.07,0,*79
1505559747.3,44426,14.19,73620.3,7.35,3.33,3.53,0,*7A
1505559748.52,44427,14.19,73604.5,7.35,3.63,3.53,0,*7E
1505559749.78,44428,14.19,73614.5,7.35,3.11,2.73,0,*77
1505559751.03,44429,14.19,73606.0,7.35,1.67,1.29,0,*79
1505559752.26,44430,14.19,73608.8,7.37,3.33,3.33,0,*79
1505559753.44,44431,14.19,73626.8,7.37,3.81,3.55,0,*71
1505559754.64,44432,14.19,73628.8,7.39,4.07,3.85,0,*78
1505559755.87,44433,14.19,73630.0,7.39,2.89,2.61,0,*72
1505559757.12,44434,14.19,73628.0,7.43,2.81,2.47,0,*74
1505559758.32,44435,14.19,73630.3,7.47,3.59,2.91,0,*7E
1505559759.52,44436,14.19,73630.3,7.47,4.53,4.23,0,*7F
1505559760.75,44437,14.19,73632.8,7.49,4.71,4.49,0,*7C
1505559761.96,44438,14.19,73630.8,7.53,5.49,5.63,0,*7B
1505559763.22,44439,14.19,73624.3,7.57,4.71,5.27,0,*74
1505559764.45,44440,14.19,73628.8,7.63,4.31,5.51,0,*78
1505559765.67,44441,14.19,73642.3,7.65,4.81,6.39,0,*79
1505559766.87,44442,14.19,73634.3,7.75,5.59,7.77,0,*74
1505559768.07,44443,14.19,73624.0,7.79,4.27,6.53,0,*76
1505559769.3,44444,14.19,73622.0,7.85,5.01,7.23,0,*71
1505559770.53,44445,14.19,73638.0,7.93,5.73,7.11,0,*73
1505559771.74,44446,14.19,73642.3,7.97,6.25,7.27,0,*71
1505559772.94,44447,14.19,73624.5,7.99,6.83,7.55,0,*77
1505559774.2,44448,14.19,73630.0,8.03,5.73,6.35,0,*7F
1505559775.45,44449,14.19,73614.3,8.07,3.97,4.97,0,*7C
1505559776.65,44450,14.19,73618.3,8.09,2.43,3.59,0,*77
1505559777.88,44451,14.19,73628.3,8.11,1.71,3.59,0,*7D
1505559779.1,44452,14.19,73622.0,8.17,-0.07,1.55,0,*5B
1505559780.36,44453,14.19,73596.0,8.17,-2.11,0.25,0,*69
1505559781.57,44454,14.19,73608.3,8.19,-1.47,-0.29,0,*41
1505559782.78,44455,14.19,73622.5,8.19,-2.27,-1.39,0,*75
1505559784.0,44456,14.19,73618.8,8.19,-2.87,-1.91,0,*7E
1505559785.19,44457,14.19,73618.0,8.19,-2.35,-1.51,0,*7A
1505559786.39,44458,14.19,73614.5,8.23,-2.31,-0.97,0,*43
1505559787.63,44459,14.19,73614.5,8.25,-3.35,-1.91,0,*76
1505559788.87,44460,14.19,73618.3,8.25,-2.71,-1.79,0,*7B
1505559790.11,44461,14.19,73612.5,8.27,-2.03,-1.39,0,*79
1505559791.31,44462,14.19,73614.3,8.31,-2.19,-1.09,0,*75
1505559792.55,44463,14.19,73618.0,8.31,-2.71,-1.83,0,*78
1505559793.73,44464,14.19,73608.5,8.31,-4.13,-3.87,0,*7B
1505559794.94,44465,14.19,73616.3,8.29,-4.17,-4.45,0,*7E
1505559796.17,44466,14.19,73616.8,8.31,-4.81,-4.73,0,*7E
1505559797.41,44467,14.19,73612.3,8.29,-5.35,-5.19,0,*75
1505559798.63,44468,14.19,73612.0,8.29,-6.09,-5.35,0,*78
1505559799.84,44469,14.19,73618.0,8.29,-5.47,-4.99,0,*77
1505559801.06,44470,14.19,73626.3,8.29,-4.33,-4.53,0,*7B
1505559802.27,44471,14.19,73624.8,8.31,-5.39,-4.77,0,*7E
1505559803.51,44472,14.19,73618.5,8.29,-5.07,-5.43,0,*7F
1505559804.77,44473,14.19,73622.0,8.29,-6.63,-5.89,0,*79
1505559806.01,44474,14.19,73620.5,8.29,-6.01,-5.65,0,*78
1505559807.26,44475,14.19,73622.0,8.29,-6.09,-5.61,0,*75
1505559808.5,44476,14.19,73622.0,8.29,-4.93,-4.65,0,*72
1505559809.74,44477,14.19,73622.8,8.29,-5.23,-4.57,0,*78
1505559810.93,44478,14.19,73618.0,8.31,-4.25,-3.87,0,*73
1505559812.15,44479,14.19,73618.0,8.29,-4.57,-4.29,0,*7D
1505559813.33,44480,14.19,73618.8,8.31,-4.13,-3.15,0,*7A
1505559814.56,44481,14.19,73626.5,8.29,-1.35,-1.17,0,*73
1505559815.8,44482,14.19,73616.0,8.33,-2.87,-2.59,0,*78
1505559817.04,44483,14.19,73620.3,8.33,-2.75,-1.71,0,*7D
1505559818.26,44484,14.19,73618.3,8.35,-2.31,-2.47,0,*7A
1505559819.44,44485,14.19,73624.0,8.39,-2.31,-1.55,0,*77
1505559820.66,44486,14.19,73620.5,8.41,-1.29,-1.25,0,*76
1505559821.87,44487,14.19,73630.3,8.45,-2.83,-2.59,0,*78
1505559823.11,44488,14.19,73618.8,8.47,-3.47,-3.31,0,*73
1505559824.33,44489,14.19,73622.3,8.47,-4.21,-3.83,0,*7C
1505559825.53,44490,14.19,73626.8,8.45,-4.13,-4.21,0,*78
1505559826.73,44491,14.19,73628.3,8.45,-3.95,-4.09,0,*7A
1505559827.94,44492,14.19,73624.0,8.45,-4.77,-4.45,0,*7A
1505559829.19,44493,14.19,73630.0,8.45,-5.27,-5.15,0,*7B
1505559830.42,44494,14.19,73632.3,8.41,-4.99,-5.19,0,*70
1505559831.65,44495,14.19,73626.5,8.39,-4.85,-4.73,0,*7E
1505559832.86,44496,14.19,73630.8,8.39,-4.73,-4.53,0,*76
1505559834.03,44497,14.19,73632.0,8.39,-4.45,-4.33,0,*74
1505559835.24,44498,14.19,73632.0,8.39,-3.67,-3.91,0,*73
1505559836.45,44499,14.19,73630.0,8.39,-2.75,-3.03,0,*7B
1505559837.63,44500,14.19,73630.8,8.39,-2.91,-3.39,0,*79
1505559838.87,44501,14.19,73634.8,8.41,-1.39,-2.27,0,*78
1505559840.08,44502,14.19,73626.8,8.41,-2.31,-4.17,0,*75
1505559841.28,44503,14.19,73622.5,8.45,-2.31,-3.83,0,*7A
1505559842.51,44504,14.19,73626.8,8.45,-3.83,-5.15,0,*7C
1505559843.73,44505,14.19,73634.5,8.45,-3.47,-4.13,0,*72
1505559844.98,44506,14.19,73622.3,8.45,-5.23,-5.15,0,*72
1505559846.2,44507,14.19,73616.5,8.45,-2.95,-3.71,0,*7D
1505559847.42,44508,14.19,73616.0,8.45,-1.91,-2.23,0,*73
1505559848.67,44509,14.19,73620.5,8.47,-2.07,-2.31,0,*7F
1505559849.89,44510,14.19,73614.3,8.47,-3.35,-3.35,0,*72
1505559851.09,44511,14.19,73616.5,8.49,-2.87,-3.67,0,*72
1505559852.32,44512,14.19,73614.8,8.45,-2.07,-2.95,0,*79
1505559853.58,44513,14.19,73612.3,8.47,-2.07,-2.59,0,*7A
1505559854.8,44514,14.19,73614.8,8.49,-3.67,-4.29,0,*75
1505559855.99,44515,14.19,73612.8,8.49,-5.47,-6.09,0,*70
1505559857.21,44516,14.19,73618.3,8.47,-6.13,-6.55,0,*76
1505559858.46,44517,14.19,73614.8,8.45,-5.93,-5.81,0,*74
1505559859.68,44518,14.19,73622.5,8.47,-4.65,-4.61,0,*7E
1505559860.87,44519,14.19,73618.0,8.45,-3.23,-3.31,0,*7A
1505559862.11,44520,14.19,73610.8,8.47,-4.65,-4.01,0,*73
1505559863.35,44521,14.19,73618.3,8.47,-3.23,-2.59,0,*7C
1505559864.56,44522,14.19,73622.3,8.47,-4.37,-3.83,0,*7B
1505559865.79,44523,14.19,73616.0,8.47,-4.37,-3.55,0,*71
1505559867.03,44524,14.19,73614.5,8.47,-4.65,-3.59,0,*7D
1505559868.27,44525,14.19,73620.8,8.47,-2.55,-1.55,0,*77
1505559869.5,44526,14.19,73622.3,8.51,-2.91,-1.83,0,*70
1505559870.75,44527,14.19,73622.3,8.51,-3.15,-1.83,0,*7C
1505559871.99,44528,14.19,73620.8,8.51,-3.35,-1.87,0,*75
1505559873.21,44529,14.19,73624.0,8.53,-3.87,-2.11,0,*73
1505559874.4,44530,14.19,73622.5,8.53,-4.05,-2.35,0,*70
1505559875.64,44531,14.19,73622.0,8.55,-2.55,-0.07,0,*77
1505559876.89,44532,14.19,73632.8,8.55,-1.05,0.79,0,*66
1505559878.12,44533,14.19,73636.5,8.57,-1.09,0.67,0,*66
1505559879.37,44534,14.19,73636.5,8.59,0.55,2.51,0,*4D
1505559880.59,44535,14.19,73642.0,8.59,0.09,2.85,0,*7C
1505559881.82,44536,14.19,73624.5,8.65,-2.47,1.59,0,*57
1505559883.04,44537,14.19,73616.8,8.67,-5.51,-0.73,0,*40
1505559884.25,44538,14.19,73610.5,8.69,-4.09,0.41,0,*61
1505559885.5,44539,14.19,73618.5,8.65,-5.85,-1.87,0,*7F
1505559886.73,44540,14.19,73634.8,8.63,-4.93,-1.51,0,*7A
1505559887.95,44541,14.19,73632.8,8.57,-2.59,0.79,0,*6A
1505559889.15,44542,14.19,73622.3,8.57,-1.17,1.83,0,*54
1505559890.34,44543,14.19,73622.3,8.57,0.13,2.65,0,*46
1505559891.55,44544,14.19,73620.8,8.53,1.83,3.79,0,*71
1505559892.8,44545,14.19,73618.8,8.55,2.25,3.67,0,*76
1505559894.03,44546,14.19,73620.0,8.55,2.09,3.29,0,*71
1505559895.23,44547,14.19,73622.0,8.57,2.81,3.89,0,*78
1505559896.43,44548,14.19,73638.3,8.59,4.49,5.45,0,*7D
1505559897.66,44549,14.19,73648.3,8.63,6.13,7.05,0,*7E
1505559898.87,44550,14.19,73648.5,8.65,6.51,7.33,0,*73
1505559900.04,44551,14.19,73632.5,8.73,6.07,6.93,0,*7D
1505559901.27,44552,14.19,73630.8,8.77,6.21,6.69,0,*7B
1505559902.47,44553,14.19,73622.3,8.81,5.29,5.15,0,*70
1505559903.7,44554,14.19,73610.3,8.85,3.85,3.45,0,*70
1505559904.92,44555,14.19,73612.0,8.87,2.69,2.05,0,*75
1505559906.15,44556,14.19,73608.8,8.87,1.25,0.59,0,*46
1505559907.32,44557,14.19,73658.3,8.91,2.35,2.27,0,*79
1505559908.5,44558,14.19,73668.0,8.95,-2.87,-2.27,0,*7B
1505559909.71,44559,14.19,73584.0,8.95,-6.55,-4.93,0,*78
1505559910.91,44560,14.19,73570.3,8.95,-8.63,-5.55,0,*72
1505559912.09,44561,14.19,73578.0,8.95,-7.49,-4.99,0,*75
1505559913.32,44562,14.19,73580.8,8.93,-8.67,-7.91,0,*78
1505559914.5,44563,14.19,73602.5,8.91,-10.09,-8.55,0,*4D
1505559915.74,44564,14.19,73600.0,8.85,-9.23,-6.93,0,*7B
1505559917.01,44565,14.19,73602.8,8.81,-7.99,-5.15,0,*7C
1505559918.27,44566,14.19,73606.3,8.81,-8.03,-4.69,0,*79
1505559919.48,44567,14.19,73608.0,8.79,-6.27,-3.83,0,*74
1505559920.67,44568,14.19,73612.5,8.79,-6.13,-3.83,0,*7C
1505559921.9,44569,14.19,73618.5,8.79,-4.85,-3.43,0,*7C
1505559923.14,44570,14.19,73602.3,8.75,-6.55,-5.89,0,*77
1505559924.41,44571,14.19,73614.5,8.75,-7.69,-7.35,0,*7D
1505559925.64,44572,14.19,73620.3,8.73,-6.27,-7.27,0,*70
1505559926.88,44573,14.19,73626.5,8.71,-5.23,-6.05,0,*75
1505559928.12,44574,14.19,73610.5,8.67,-3.07,-4.89,0,*73
1505559929.35,44575,14.19,73612.5,8.65,-4.01,-6.35,0,*74
1505559930.61,44576,14.19,73618.5,8.59,-3.83,-5.07,0,*77
1505559931.79,44577,14.19,73620.5,8.57,-2.83,-3.07,0,*7F
1505559933.03,44578,14.19,73616.0,8.59,-2.83,-1.91,0,*73
1505559934.26,44579,14.19,73618.0,8.59,-4.85,-3.31,0,*7A
1505559935.47,44580,14.19,73622.3,8.57,-4.49,-2.11,0,*71
1505559936.7,44581,14.19,73624.0,8.57,-2.59,-0.97,0,*4B
1505559937.89,44582,14.19,73626.5,8.57,-2.83,-1.79,0,*7E
1505559939.15,44583,14.25,73632.5,8.59,-1.13,0.55,0,*69
1505559940.39,44584,14.19,73644.3,8.59,0.71,1.67,0,*46
1505559941.62,44585,14.19,73636.0,8.65,2.43,3.23,0,*79
1505559942.87,44586,14.19,73636.0,8.71,2.13,2.69,0,*75
1505559944.07,44587,14.19,73636.3,8.77,-0.37,0.01,0,*67
1505559945.28,44588,14.19,73620.8,8.81,-4.49,-3.79,0,*7D
1505559946.51,44589,14.19,73622.8,8.81,-7.11,-4.57,0,*79
1505559947.75,44590,14.19,73640.5,8.81,-5.77,-4.25,0,*76
1505559948.95,44591,14.19,73636.0,8.87,-4.61,-3.51,0,*73
1505559950.18,44592,14.19,73632.3,8.87,-3.75,-1.35,0,*72
1505559951.39,44593,14.19,73632.8,8.93,-4.09,-2.19,0,*77
1505559952.59,44594,14.19,73632.8,8.95,-3.91,-1.67,0,*7A
1505559953.83,44595,14.19,73638.3,8.97,-3.83,-1.43,0,*7C
1505559955.03,44596,14.19,73636.5,8.99,-3.95,-2.23,0,*73
1505559956.21,44597,14.19,73634.0,9.03,-3.11,-0.81,0,*46
1505559957.44,44598,14.19,73640.5,9.05,-2.03,-0.53,0,*42
1505559958.65,44599,14.19,73646.0,9.09,-2.71,-1.59,0,*71
1505559959.9,44600,14.19,73636.8,9.13,-4.01,-1.09,0,*7D
1505559961.11,44601,14.19,73638.8,9.17,-3.43,-1.75,0,*72
1505559962.32,44602,14.19,73640.0,9.19,-2.91,-1.59,0,*7F
1505559963.55,44603,14.19,73638.8,9.19,-4.89,-3.23,0,*7E
1505559964.79,44604,14.19,73636.0,9.21,-5.27,-3.43,0,*71
1505559966.03,44605,14.19,73640.8,9.21,-3.55,-1.35,0,*70
1505559967.27,44606,14.19,73646.0,9.23,-4.89,-3.31,0,*71
1505559968.49,44607,14.25,73646.3,9.23,-7.15,-4.65,0,*70
1505559969.75,44608,14.19,73636.8,9.19,-5.19,-1.87,0,*71
1505559971.02,44609,14.19,73632.3,9.19,-7.43,-2.71,0,*77
1505559972.24,44610,14.19,73634.5,9.17,-3.79,-1.01,0,*78
1505559973.47,44611,14.19,73632.3,9.15,-1.63,0.59,0,*63
1505559974.68,44612,14.19,73624.8,9.11,0.01,1.25,0,*76
1505559975.91,44613,14.19,73624.3,9.05,0.91,1.83,0,*47
1505559977.12,44614,14.19,73618.8,9.05,0.55,0.97,0,*7C
1505559978.36,44615,14.19,73614.8,9.01,0.95,1.29,0,*41
1505559979.6,44616,14.19,73616.5,9.01,0.55,0.79,0,*7A
1505559980.8,44617,14.19,73620.3,8.95,0.97,1.17,0,*40
1505559982.03,44618,14.19,73620.3,8.93,2.27,2.51,0,*71
1505559983.26,44619,14.19,73614.5,8.89,2.43,2.35,0,*7B
1505559984.48,44620,14.19,73618.5,8.89,3.63,3.49,0,*78
1505559985.66,44621,14.19,73654.3,8.91,4.49,4.33,0,*75
1505559986.88,44622,14.19,73642.5,8.93,5.55,5.33,0,*79
1505559988.06,44623,14.19,73630.3,8.95,3.59,4.37,0,*71
1505559989.25,44624,14.19,73616.8,8.99,2.35,3.37,0,*76
1505559990.45,44625,14.19,73612.5,9.03,2.35,3.41,0,*74
1505559991.68,44626,14.19,73624.8,9.03,3.67,3.79,0,*7A
1505559992.9,44627,14.25,73624.5,9.05,2.51,2.27,0,*73
1505559994.16,44628,14.19,73628.3,9.05,1.29,1.17,0,*70
1505559995.38,44629,14.19,73628.0,9.05,2.43,2.35,0,*7D
1505559996.63,44630,14.25,73626.3,9.01,3.75,3.79,0,*7C
1505559997.81,44631,14.19,73616.0,9.03,4.27,4.11,0,*76
1505559999.03,44632,14.19,73616.8,9.03,3.19,2.81,0,*70
1505560000.24,44633,14.19,73612.3,9.03,1.47,0.95,0,*4F
1505560001.45,44634,14.19,73616.0,8.99,0.71,0.25,0,*75
1505560002.7,44635,14.19,73620.8,8.97,1.63,1.47,0,*7D
1505560003.87,44636,14.19,73608.5,8.95,-0.29,-0.15,0,*75
1505560005.1,44637,14.19,73604.0,8.93,-0.11,0.21,0,*53
1505560006.34,44638,14.19,73620.3,8.89,0.59,0.71,0,*73
1505560007.56,44639,14.25,73634.5,8.87,2.89,2.77,0,*77
1505560008.76,44640,14.19,73632.5,8.87,5.05,4.81,0,*75
1505560009.96,44641,14.25,73634.0,8.91,4.75,4.33,0,*7C
1505560011.14,44642,14.19,73626.8,8.95,2.27,2.65,0,*7F
1505560012.37,44643,14.19,73628.8,8.95,2.05,2.13,0,*7F
1505560013.57,44644,14.19,73634.8,8.95,0.37,0.37,0,*7F
1505560014.77,44645,14.19,73630.3,8.93,-0.65,-0.69,0,*74
1505560015.99,44646,14.19,73626.8,8.95,-2.03,-2.35,0,*78
1505560017.2,44647,14.19,73632.0,8.95,-2.43,-1.91,0,*70
1505560018.45,44648,14.19,73650.3,8.93,-1.05,0.17,0,*6A
1505560019.64,44649,14.19,73622.3,8.95,-3.79,-1.75,0,*7C
1505560020.89,44650,14.25,73606.3,8.97,-4.05,-2.51,0,*7F
1505560022.09,44651,14.19,73620.3,8.97,-1.59,-0.73,0,*40
1505560023.32,44652,14.19,73634.8,8.99,1.37,2.09,0,*7A
1505560024.57,44653,14.19,73634.5,8.97,1.25,2.47,0,*7C
1505560025.79,44654,14.19,73620.0,9.03,0.33,2.13,0,*40
1505560027.0,44655,14.19,73640.0,9.03,0.75,2.51,0,*45
1505560028.23,44656,14.19,73658.3,9.05,2.05,3.25,0,*77
1505560029.42,44657,14.19,73656.0,9.13,0.29,1.75,0,*4A
1505560030.67,44658,14.19,73640.5,9.11,-5.07,-1.75,0,*7E
1505560031.94,44659,14.19,73646.0,9.11,-3.63,-1.47,0,*7A
1505560033.19,44660,14.19,73638.3,9.09,-5.69,-2.47,0,*76
1505560034.42,44661,14.25,73640.3,9.09,-1.83,0.83,0,*60
1505560035.67,44662,14.25,73652.0,9.05,-0.27,1.17,0,*6C
1505560036.9,44663,14.19,73650.3,9.01,0.75,1.47,0,*46
1505560038.14,44664,14.19,73648.5,9.01,3.15,3.55,0,*75
1505560039.35,44665,14.19,73644.8,9.03,3.53,4.01,0,*72
1505560040.58,44666,14.19,73636.0,9.03,3.75,4.05,0,*71
1505560041.76,44667,14.19,73636.0,9.03,4.27,4.37,0,*71
1505560042.94,44668,14.19,73630.0,9.03,4.11,4.27,0,*7A
1505560044.13,44669,14.25,73634.5,9.03,3.93,4.01,0,*72
1505560045.36,44670,14.25,73634.5,9.01,3.67,3.63,0,*70
1505560046.62,44671,14.25,73638.3,9.01,3.03,2.81,0,*7E
1505560047.82,44672,14.25,73638.0,8.99,2.27,2.05,0,*76
1505560049.07,44673,14.25,73644.8,8.97,2.59,2.47,0,*76
1505560050.3,44674,14.19,73636.5,8.93,3.29,3.33,0,*71
1505560051.53,44675,14.19,73638.0,8.95,3.45,3.49,0,*71
1505560052.73,44676,14.19,73638.8,8.93,4.15,4.27,0,*79
1505560053.99,44677,14.19,73638.8,8.93,4.71,4.75,0,*7D
1505560055.17,44678,14.25,73640.5,8.95,4.37,4.41,0,*71
1505560056.36,44679,14.19,73636.3,8.93,4.49,4.49,0,*77
1505560057.62,44680,14.19,73632.0,8.97,4.67,4.79,0,*7A
1505560058.79,44681,14.25,73634.0,8.95,5.49,5.59,0,*77
1505560059.99,44682,14.25,73636.0,8.95,5.67,5.81,0,*7D
1505560061.21,44683,14.25,73638.5,8.99,6.39,6.65,0,*71
1505560062.41,44684,14.25,73646.5,9.03,6.65,6.93,0,*74
1505560063.64,44685,14.25,73650.8,9.03,6.65,6.87,0,*70
1505560064.89,44686,14.25,73642.3,9.11,5.93,6.13,0,*77
1505560066.1,44687,14.25,73626.5,9.13,4.93,5.41,0,*71
1505560067.33,44688,14.25,73616.8,9.15,4.97,5.41,0,*7C
1505560068.5,44689,14.25,73638.5,9.17,4.41,4.89,0,*71
1505560069.73,44690,14.25,73658.5,9.17,4.71,5.23,0,*7B
1505560070.98,44691,14.25,73652.0,9.19,1.93,2.59,0,*77
1505560072.2,44692,14.25,73652.3,9.19,0.87,2.27,0,*49
1505560073.44,44693,14.19,73646.8,9.19,0.13,2.09,0,*49
1505560074.65,44694,14.19,73660.3,9.21,-0.73,1.17,0,*62
1505560075.85,44695,14.19,73646.8,9.21,-4.09,-0.41,0,*45
1505560077.08,44696,14.19,73648.0,9.23,-8.97,-3.71,0,*7F
1505560078.3,44697,14.25,73654.8,9.23,-13.11,-6.35,0,*4F
1505560079.58,44698,14.25,73620.8,9.19,-14.51,-5.93,0,*45
1505560080.82,44699,14.19,73608.0,9.15,-7.87,-2.51,0,*78
1505560082.03,44700,14.25,73612.3,9.15,-4.17,-1.63,0,*71
1505560083.25,44701,14.25,73634.5,9.15,-4.57,-2.31,0,*70
1505560084.44,44702,14.25,73652.8,9.09,-2.23,-0.57,0,*49
1505560085.64,44703,14.25,73646.0,9.09,-0.81,0.79,0,*53
1505560086.84,44704,14.25,73648.5,9.09,-0.57,0.83,0,*5A
1505560088.05,44705,14.25,73648.3,9.09,-1.95,-0.65,0,*41
1505560089.26,44706,14.25,73648.0,9.05,-3.19,-1.79,0,*74
1505560090.49,44707,14.25,73652.5,9.05,-5.19,-4.05,0,*7D
1505560091.72,44708,14.25,73660.5,8.97,-5.73,-4.29,0,*7A
1505560092.96,44709,14.19,73666.5,8.93,-5.27,-3.31,0,*70
1505560094.22,44710,14.25,73672.8,8.89,-3.51,-1.43,0,*73
1505560095.46,44711,14.25,73670.0,8.87,-3.59,-1.13,0,*71
1505560096.69,44712,14.25,73670.3,8.85,-2.23,0.21,0,*61
1505560097.91,44713,14.25,73670.3,8.85,-0.49,1.67,0,*6D
1505560099.11,44714,14.25,73666.0,8.81,1.05,2.35,0,*7E
1505560100.33,44715,14.25,73662.0,8.77,0.75,1.41,0,*40
1505560101.58,44716,14.25,73658.3,8.75,1.09,1.51,0,*7A
1505560102.81,44717,14.25,73652.5,8.73,2.39,2.55,0,*7A
1505560103.97,44718,14.25,73650.0,8.73,1.41,1.41,0,*7F
1505560105.18,44719,14.25,73650.3,8.69,1.67,1.75,0,*76
1505560106.43,44720,14.25,73660.0,8.67,2.43,2.55,0,*76
1505560107.68,44721,14.25,73662.8,8.67,2.55,2.47,0,*73
1505560108.91,44722,14.25,73666.3,8.63,1.83,1.71,0,*7A
1505560110.16,44723,14.25,73652.5,8.63,1.71,1.55,0,*70
1505560111.37,44724,14.19,73640.3,8.57,1.85,1.75,0,*79
1505560112.57,44725,14.25,73636.5,8.57,2.31,2.21,0,*76
1505560113.81,44726,14.25,73628.8,8.53,2.51,2.43,0,*73
1505560114.99,44727,14.25,73622.5,8.53,2.61,2.61,0,*71
1505560116.23,44728,14.25,73616.3,8.53,2.55,2.51,0,*7A
1505560117.43,44729,14.25,73602.0,8.49,2.27,2.21,0,*72
1505560118.61,44730,14.25,73592.8,8.49,2.95,2.99,0,*70
1505560119.83,44731,14.25,73584.3,8.51,3.63,3.71,0,*77
1505560121.07,44732,14.25,73586.3,8.49,3.79,3.71,0,*76
1505560122.32,44733,14.25,73594.0,8.51,3.71,3.71,0,*76
1505560123.55,44734,14.25,73598.0,8.49,4.01,4.05,0,*7C